Gwinn, MI

3:50 AM EDT on July 24, 2016 (GMT -0400)
Sawyer International

Weather History for KSAW - December, 2013

Change the Weather History Date:

Sunday, December 8, 2013

  Actual Average (KESC) Record (KESC)
Temperature  
Mean Temperature 0 °F -  
Max Temperature 10 °F 31 °F 46 °F (1965)
Min Temperature -9 °F 19 °F -4 °F (1958)
Degree Days  
Heating Degree Days 64    
Moisture  
Dew Point -5 °F    
Average Humidity 81    
Maximum Humidity 89    
Minimum Humidity 57    
Precipitation  
Precipitation 0.00 in - - ()
Sea Level Pressure  
Sea Level Pressure 30.30 in    
Wind  
Wind Speed 4 mph (WSW)    
Max Wind Speed 7 mph    
Max Gust Speed -    
Visibility 8 miles    
Events Snow    
Averages and records for this station are not official NWS values.
T = Trace of Precipitation, MM = Missing Value Source: NWS Daily Summary

Daily Weather History Graph

Daily Weather History Graph

Search for Another Location

Airport or City:

Trip Planner

Search our weather history database for the weather conditions in past years. The results will help you decide how hot, cold, wet, or windy it might be!

Date:

Astronomy

Dec. 08, 2013 Rise Set
Actual Time 8:20 AM EST 5:03 PM EST
Civil Twilight 7:45 AM EST 5:37 PM EST
Nautical Twilight 7:07 AM EST 6:15 PM EST
Astronomical Twilight 6:31 AM EST 6:52 PM EST
Moon 12:24 PM EST (12/8) No Moon Set
Length of Visible Light 9h 52m
Length of Day
8h 42m
Waxing Crescent, 40% of the Moon is Illuminated
Dec 8
Waxing Crescent
Dec 9
First Quarter
Dec 17
Full
Dec 25
Last Quarter
Jan 1
New

Hourly Weather History & Observations

Time (EST) Temp. Windchill Dew Point Humidity Pressure Visibility Wind Dir Wind Speed Gust Speed Precip Events Conditions
12:17 AM -3.3 °F -15.4 °F -9.4 °F 75% 30.45 in 10.0 mi WSW 5.8 mph - N/A   Clear
12:37 AM -3.6 °F -15.9 °F -9.4 °F 76% 30.45 in 10.0 mi West 5.8 mph - N/A   Clear
12:57 AM -4.5 °F -15.2 °F -9.8 °F 78% 30.44 in 10.0 mi West 4.6 mph - N/A   Clear
1:17 AM -4.9 °F -13.4 °F -9.9 °F 79% 30.44 in 10.0 mi SSW 3.5 mph - N/A   Clear
1:37 AM -5.1 °F -15.8 °F -9.9 °F 80% 30.43 in 10.0 mi West 4.6 mph - N/A   Clear
1:56 AM -6.0 °F -18.6 °F -10.5 °F 81% 30.43 in 10.0 mi West 5.8 mph - N/A   Clear
2:17 AM -6.3 °F -19.1 °F -11.0 °F 80% 30.43 in 10.0 mi West 5.8 mph - N/A   Clear
2:37 AM -6.7 °F -15.5 °F -11.2 °F 81% 30.42 in 10.0 mi WNW 3.5 mph - N/A   Clear
2:57 AM -6.9 °F -17.9 °F -11.4 °F 81% 30.42 in 10.0 mi West 4.6 mph - N/A   Clear
3:17 AM -7.4 °F -20.4 °F -11.7 °F 81% 30.43 in 10.0 mi WSW 5.8 mph - N/A   Clear
3:37 AM -8.1 °F -21.2 °F -12.6 °F 81% 30.43 in 10.0 mi SW 5.8 mph - N/A   Clear
3:57 AM -8.0 °F -21.0 °F -12.5 °F 81% 30.42 in 10.0 mi WSW 5.8 mph - N/A   Clear
4:17 AM -8.7 °F -21.9 °F -13.2 °F 81% 30.42 in 10.0 mi WSW 5.8 mph - N/A   Clear
4:37 AM -8.9 °F -20.2 °F -13.5 °F 80% 30.42 in 10.0 mi WSW 4.6 mph - N/A   Clear
4:57 AM -8.9 °F -20.2 °F -13.5 °F 80% 30.41 in 10.0 mi WSW 4.6 mph - N/A   Clear
5:16 AM -8.5 °F -19.8 °F -13.0 °F 81% 30.42 in 10.0 mi WSW 4.6 mph - N/A   Clear
5:37 AM -8.7 °F -17.8 °F -13.4 °F 80% 30.42 in 10.0 mi WSW 3.5 mph - N/A   Clear
5:57 AM -8.9 °F -22.1 °F -13.4 °F 81% 30.42 in 10.0 mi WSW 5.8 mph - N/A   Clear
6:46 AM -9.4 °F - -13.0 °F 84% 30.42 in 10.0 mi Calm Calm - N/A   Clear
7:50 AM -7.6 °F -18.8 °F -13.0 °F 77% 30.41 in 10.0 mi WSW 4.6 mph - N/A Snow Light Snow
8:46 AM -7.6 °F -16.5 °F -11.2 °F 84% 30.40 in 10.0 mi WSW 3.5 mph - N/A   Mostly Cloudy
9:53 AM -4.0 °F -14.6 °F -9.4 °F 78% 30.39 in 10.0 mi WSW 4.6 mph - N/A   Overcast
10:50 AM -0.4 °F -8.3 °F -5.8 °F 78% 30.39 in 10.0 mi SW 3.5 mph - N/A   Overcast
11:47 AM 1.4 °F - -2.2 °F 85% 30.36 in 10.0 mi Calm Calm - N/A   Overcast
12:48 PM 5.0 °F - -2.2 °F 72% 30.33 in 10.0 mi Calm Calm - N/A   Overcast
1:55 PM 8.6 °F 0.1 °F -2.2 °F 62% 30.29 in 10.0 mi South 4.6 mph - N/A   Overcast
2:59 PM 10.4 °F 0.8 °F -2.2 °F 57% 30.26 in 10.0 mi South 5.8 mph - N/A   Overcast
3:50 PM 8.6 °F -2.6 °F 1.4 °F 73% 30.24 in 4.0 mi South 6.9 mph - N/A   Haze
4:55 PM 8.6 °F 0.1 °F 5.0 °F 85% 30.22 in 3.0 mi South 4.6 mph - N/A Snow Light Snow
5:50 PM 8.6 °F - 5.0 °F 85% 30.20 in 3.0 mi Calm Calm - N/A Snow Light Snow
6:55 PM 8.6 °F - 5.0 °F 85% 30.17 in 2.0 mi Calm Calm - N/A Snow Light Snow
7:55 PM 8.6 °F - 5.0 °F 85% 30.13 in 2.0 mi Calm Calm - N/A Snow Light Snow
8:50 PM 8.6 °F - 5.0 °F 85% 30.10 in 4.0 mi Calm Calm - N/A Snow Light Snow
9:50 PM 8.6 °F 2.0 °F 5.0 °F 85% 30.07 in 2.0 mi North 3.5 mph - N/A Snow Light Snow
10:16 PM 9.0 °F - 5.9 °F 87% 30.05 in 2.5 mi Calm Calm - N/A Snow Light Snow
10:37 PM 9.0 °F - 5.9 °F 87% 30.03 in 1.2 mi Calm Calm - N/A Snow Snow
10:57 PM 8.6 °F 2.0 °F 5.9 °F 89% 30.02 in 1.5 mi NNW 3.5 mph - N/A Snow Light Snow
11:17 PM 7.9 °F 1.2 °F 5.0 °F 88% 30.01 in 5.0 mi NNW 3.5 mph - N/A Snow Light Snow
11:37 PM 9.0 °F 2.4 °F 6.3 °F 89% 30.00 in 2.0 mi North 3.5 mph - N/A Snow Light Snow
11:57 PM 9.5 °F - 6.8 °F 89% 29.99 in 3.0 mi Calm Calm - N/A Snow Light Snow